ONEWEB-0209, 48215

Orbit data source: Space-Track

ONEWEB-0209, 48215 is a payload satellite owned by One Web (NAA) (UK) in LEO that was launched on Sun, 25 Apr 2021 UTC via a SOYUZ-2-1B launch vehicle from the Vostochny Cosmodrome (VOSTO). Payload-class satellites include a variety of spacecraft equipped with specific instruments for various scientific and technological missions. These include communications satellites like Starlink; space stations such as the ISS; scientific satellites like the Hubble; Earth observation satellites from companies like Planet Labs, Umbra, and HawkEye 360; GPS; miniature CubeSats for education and research; and military/defense satellites.

Loading next visibility...
Identifier
48215, 2021-031F
Orbit
LEO
Country
Flag of UKUK
Related business
Manufacturer
One Web
Mission
Operational Commercial Communications
Bus & Motor
ARROW, Unknown motor
Mass
148 kg wet, ~140 kg dry
Launch date (UTC)
2021-04-25 (5 years ago)
Launch vehicle
SOYUZ-2-1B
Launch site
Vostochny Cosmodrome (VOSTO)
Object type
Payload
Rocket body
Debris
Shape & HBR
Trap Box + 2 Pan, 6.7 m
Radar Cross Section
3.464 m², Large (>1 m²)

Expand to show TLE details & history
Last TLE update: 20 hours ago

TLE from 20 hours ago
0 ONEWEB-0209
1 48215U 21031F   26094.10368742  .00000260  00000-0  66633-3 0  9994
2 48215  87.8930 304.5052 0001597  81.0438 279.0872 13.14504369238646
Epoch: 2026-04-04T02:29Z
TLE epoch observation values (Epoch: 2026-04-04T02:29:18.593Z)
Latitude
-0.00004°
Longitude
74.74946°
Altitude
1,208.487 km
Speed
7.25 km/s
True Right ascension
20h 18m 01s
True Declination
0° 00' 00"
Sunlit
Object was in daylight at epoch
Visualization orbit readout
Latitude
Unknown
Longitude
Unknown
Altitude
Unknown
Speed
Unknown
Apparent Right ascension
Unknown
Apparent Declination
Unknown
Sunlit
N/A
Visualization observer readout
Local Sidereal Time
04:07:56
Azimuth
Unknown
Elevation
Unknown
Doppler factor
Unknown
Orbital elements
Apogee altitude
1,204.109 km
Perigee altitude
1,201.687 km
Semi-major axis
7,581.035 km
Eccentricity
0.00016
Inclination
87.893°
RAAN
304.5052°
Arg. of periapsis
81.0438°
True anomaly
279.06913°
Mean anomaly
279.0872°
Eccentric anomaly
279.07816°
Mean motion
3.28814 °/min
Orbital period
109.48 mins
BSTAR
0.00066633
Loading maneuver chart data...
Computing Atmospheric mass density...
Loading historical data...
Loading historical data...
Loading historical data...
Loading historical data...
Loading historical data...
Loading historical data...
Loading historical data...

Documentation

Showing up to 5 results
|